スワン彗星

C/2011 Q4 ( SWAN )

English version
Home page
Updated on July 12, 2021

---------------------------------------------------------------------

・ プロフィール

発見日 2011年8月23日
発見光度
発見者 Vladimir Bezugly (Dnepropetrovsk, Ukraine), Robert D. Matson (Irvine, CA, U.S.A.)

・ 写真集

・ 軌道要素

Epoch 2011 Oct. 6.0 TT = JDT 2455840.5
T 2011 Sept. 21.08307 TT                                MPC
q   1.1122163            (2000.0)            P               Q
z  +0.0232513      Peri.    1.88046     -0.33385553     -0.79502194
 +/-0.0000021      Node   252.08609     -0.87163964     +0.05583195
e   0.9741395      Incl.  147.84291     -0.35886602     +0.60400572
From 157 observations 2011 Sept. 4-2012 Mar. 26, mean residual 0".5.

・ 星図

・ 光度変化

        m1 = 9.0 + 5 logΔ + 20.0 log r

---------------------------------------------------------------------

軌道要素はM.P.E.C. 2012-G45に掲載されたものです。
光度グラフはComet for Windowsで作成したものです。

---------------------------------------------------------------------

Copyright(C) Seiichi Yoshida (comet@aerith.net). All rights reserved.